Regional Weather Roundup
Issued by NWS

Home | Current Version | Previous Version | Graphics & Text | Print | Product List | Glossary On
Versions: 1 2 3 4 5 6 7 8 9 10 11 12 13 14 15 16 17 18 19 20 21 22 23 24 25 26 27 28 29 30 31 32 33 34 35 36 37 38 39 40 41 42 43 44 45 46 47 48 49 50
697
ASUS44 KJAN 201203
RWRMS

MISSISSIPPI HOURLY WEATHER ROUNDUP
NATIONAL WEATHER SERVICE JACKSON MS
600 AM CST SAT DEC 20 2014

NOTE: "FAIR: INDICATES FEW OR NO CLOUDS BELOW 12,000 FEET WITH NO
SIGNIFICANT WEATHER AND/OR OBSTRUCTIONS TO VISIBILITY.

MSZ001>002-007>008-010>013-018>021-025>028-034>036-201300-
NORTHWEST MISSISSIPPI

CITY           SKY/WX    TMP DP  RH WIND       PRES   REMARKS
CLARKSDALE     FAIR      34  34 100 N5        30.26R WCI  30
CLEVELAND      FAIR      37  37 100 N7        30.24R WCI  31
GREENWOOD      CLEAR     35  34  96 CALM      30.22R FOG
6HR MIN TEMP:  34; 6HR MAX TEMP:  43;

GREENVILLE     CLEAR     38  35  89 N7        30.23R WCI  33
6HR MIN TEMP:  38; 6HR MAX TEMP:  45;

GRENADA        FAIR      36  32  87 CALM      30.23R
OLIVE BRANCH   CLOUDY    34  34 100 NE5       30.24R WCI  30
OXFORD         FAIR      32  30  93 CALM      30.25R FOG
TUNICA         CLOUDY    36  34  93 CALM      30.27R
$$

MSZ003>006-009-014>017-022>024-029>033-037>039-201300-
NORTHEAST MISSISSIPPI

CITY           SKY/WX    TMP DP  RH WIND       PRES   REMARKS
COLUMBUS AFB   CLEAR     36  35  93 N1        30.21R
6HR MIN TEMP:  36; 6HR MAX TEMP:  41; 6HR PCP: TRACE;

CORINTH        FAIR      32  30  93 NW5       30.23R WCI  27
GOLDN TRIANGLE CLEAR     36  32  87 N6        30.19R WCI  31
STARKVILLE     FAIR      36  36 100 CALM      30.21R FOG
TUPELO         CLEAR     32  30  92 NE6       30.22R WCI  26
6HR MIN TEMP:  32; 6HR MAX TEMP:  40;

$$

MSZ040-058-201300-
CENTRAL MISSISSIPPI

CITY           SKY/WX    TMP DP  RH WIND       PRES   REMARKS
JACKSON INTL   CLOUDY    44  41  89 NE7       30.19R
6HR MIN TEMP:  44; 6HR MAX TEMP:  46; 6HR PCP: TRACE;

JACKSON HAWKNS CLOUDY    44  40  85 NE3       30.19R
6HR MIN TEMP:  44; 6HR MAX TEMP:  46;

MERIDIAN KEY   CLOUDY    42  40  92 N10       30.19R
6HR MIN TEMP:  42; 6HR MAX TEMP:  43; 6HR PCP: TRACE;

MERIDIAN NAS   CLOUDY    41  39  93 N7        30.20R
6HR MIN TEMP:  41; 6HR MAX TEMP:  43; 6HR PCP: TRACE;

RAYMOND        CLOUDY    45  39  81 NE6       30.19R
VICKSBURG      CLOUDY    45  42  89 NE7       30.20R
6HR MIN TEMP:  44; 6HR MAX TEMP:  46; 6HR PCP: TRACE;

$$

MSZ059>079-201300-
SOUTH MISSISSIPPI

CITY           SKY/WX    TMP DP  RH WIND       PRES   REMARKS
HATTIESBURG    CLOUDY    46  45  96 NE3       30.16R
6HR MIN TEMP:  46; 6HR MAX TEMP:  47; 6HR PCP:  0.05;

MCCOMB         CLOUDY    46  43  89 VRB5      30.14R
6HR MIN TEMP:  45; 6HR MAX TEMP:  46; 6HR PCP:  0.01;

NATCHEZ        CLOUDY    45  43  93 NE7       30.17R
6HR MIN TEMP:  45; 6HR MAX TEMP:  46;

PINE BELT      CLOUDY    45  41  87 NE8       30.16R
6HR MIN TEMP:  45; 6HR MAX TEMP:  45; 6HR PCP:  0.03;

$$

MSZ080>082-201300-
COASTAL MISSISSIPPI

CITY           SKY/WX    TMP DP  RH WIND       PRES   REMARKS
BILOXI         LGT RAIN  47  47 100 NE13G18   30.11R
6HR MIN TEMP:  47; 6HR MAX TEMP:  48; 6HR PCP:  0.54;

PASCAGOULA     CLOUDY    47  46  97 N13       30.12R
6HR MIN TEMP:  47; 6HR MAX TEMP:  48; 6HR PCP:  0.67;

GULFPORT       CLOUDY    47  45  93 N13       30.12R
6HR MIN TEMP:  47; 6HR MAX TEMP:  48; 6HR PCP:  0.32;

$$



USA.gov is the U.S. government's official web portal to all federal, state and local government web resources and services.